This demonstration page uses our WeatherBlox Daily Observations layout. Learn more.

Left ArrowRight Arrow

Hourly Observations for May 15, 2018

Temp ( °F °C ) Dew Point ( °F °C ) Humidity (%) Winds ( mph kmh ) Pressure ( in mb ) Visibility ( mi km ) Precip ( " mm )
12:53 am 00:53 Clear 51 10.6 42 5.6 71 71 WSW 6 9 29.92 1013 10 16 0.00 0.00
1:53 am 01:53 Clear 51 10.6 42 5.6 71 71 WNW 3 6 29.91 1013 10 16 0.00 0.00
2:53 am 02:53 Clear 49 9.4 44 6.7 83 83 WSW 8 13 29.91 1013 10 16 0.00 0.00
3:53 am 03:53 Clear 51 10.6 44 6.7 77 77 SSW 9 15 29.90 1013 10 16 0.00 0.00
4:53 am 04:53 Clear 50 10 45 7.2 83 83 SSW 8 13 29.90 1013 10 16 0.00 0.00
5:53 am 05:53 Sunny 49 9.4 45 7.2 86 86 SW 9 15 29.90 1013 10 16 0.00 0.00
6:53 am 06:53 Sunny 53 11.7 46 7.8 77 77 Calm 29.91 1013 10 16 0.00 0.00
7:53 am 07:53 Sunny 57 13.9 48 8.9 72 72 SW 8 13 29.91 1013 10 16 0.00 0.00
8:53 am 08:53 Sunny 65 18.3 49 9.4 56 56 WSW 8 13 29.89 1012 10 16 0.00 0.00
9:53 am 09:53 Sunny 70 21.1 47 8.3 44 44 SW 15 24 29.89 1012 10 16 0.00 0.00
10:53 am 10:53 Sunny 73 22.8 47 8.3 40 40 SW 16 26 29.87 1012 10 16 0.00 0.00
11:53 am 11:53 Sunny 76 24.4 45 7.2 33 33 SW 15 24 29.86 1011 10 16 0.00 0.00
12:53 pm 12:53 Sunny 79 26.1 43 6.1 28 28 SW 13 20 29.85 1011 10 16 0.00 0.00
1:53 pm 13:53 Sunny 81 27.2 42 5.6 25 25 WSW 8 13 29.84 1010 10 16 0.00 0.00
2:53 pm 14:53 Sunny 81 27.2 32 0 17 17 Calm 29.83 1010 10 16 0.00 0.00
3:53 pm 15:53 Sunny 83 28.3 37 2.8 19 19 SSW 9 15 29.81 1009 10 16 0.00 0.00
4:53 pm 16:53 Sunny 82 27.8 35 1.7 18 18 VRB 5 7 29.80 1009 10 16 0.00 0.00
5:53 pm 17:53 Sunny 81 27.2 37 2.8 21 21 SSW 7 11 29.80 1009 10 16 0.00 0.00
6:53 pm 18:53 Sunny 81 27.2 41 5 24 24 SSW 5 7 29.78 1008 10 16 0.00 0.00
7:53 pm 19:53 Sunny 77 25 50 10 39 39 S 5 7 29.78 1008 10 16 0.00 0.00
8:53 pm 20:53 Sunny 68 20 54 12.2 61 61 SSE 7 11 29.78 1008 10 16 0.00 0.00
9:53 pm 21:53 Clear 64 17.8 43 6.1 46 46 S 9 15 29.79 1009 10 16 0.00 0.00
10:53 pm 22:53 Clear 59 15 44 6.7 58 58 SSE 6 9 29.80 1009 10 16 0.00 0.00
11:53 pm 23:53 Clear 61 16.1 44 6.7 54 54 SSE 8 13 29.79 1009 10 16 0.00 0.00

Powered by AerisWeather